• Processing (Info)

  • MPEC 2023-N38 : 2023 NM

    The following Minor Planet Electronic Circular may be linked-to from your own Web pages, but must not otherwise be redistributed electronically.

    A form allowing access to any MPEC is at the bottom of this page.


    Read MPEC 2023-N37 Read MPEC 2023-N39


    M.P.E.C. 2023-N38                                 Issued 2023 July 10, 01:29 UT
    
         The Minor Planet Electronic Circulars contain information on unusual
             minor planets, routine data on comets and natural satellites,
             and occasional editorial announcements.  They are published
        on behalf of Division F of the International Astronomical Union by the
              Minor Planet Center, Smithsonian Astrophysical Observatory,
                              Cambridge, MA 02138, U.S.A.
    			  
                 Prepared using the Tamkin Foundation Computer Network
    
                                  MPC@CFA.HARVARD.EDU
                URL https://www.minorplanetcenter.net/    ISSN 1523-6714
    
                                     2023 NM                                 
    
    
    Observations:
         K23N00M*1C2023 07 09.33120617 07 00.257-07 31 51.71         18.82GVEN038G96
         K23N00M 1C2023 07 09.33571717 07 02.953-07 31 25.54         20.04GVEN038G96
         K23N00M 1C2023 07 09.34021117 07 05.732-07 30 58.10         19.12GVEN038G96
         K23N00M 1C2023 07 09.34471617 07 08.544-07 30 30.82               VEN038G96
         K23N00M mC2023 07 09.38385717 07 35.497-07 26 29.54         19.10GVEN038I52
         K23N00M mC2023 07 09.38422417 07 35.735-07 26 27.85         19.58GVEN038I52
         K23N00M mC2023 07 09.38459117 07 36.073-07 26 24.61         20.33GVEN038I52
         K23N00M mC2023 07 09.38496517 07 36.286-07 26 22.56         18.78GVEN038I52
         K23N00M IC2023 07 09.86214217 18 02.62 -06 50 30.1          19.5 GVEN038L01
         K23N00M bC2023 07 09.86412517 18 03.80 -06 50 19.8          19.7 GVEN038L01
         K23N00M bC2023 07 09.86616117 18 04.97 -06 50 09.3          19.3 GVEN038L01
         K23N00M bC2023 07 09.86819717 18 06.20 -06 49 58.4          19.4 GVEN038L01
         K23N00M bC2023 07 09.87017917 18 07.35 -06 49 48.0          19.6 GVEN038L01
         K23N00M KC2023 07 09.94374917 19 14.136-06 45 03.82         19.0 GVEN038J95
         K23N00M KC2023 07 09.95084717 19 18.730-06 44 24.14         19.1 GVEN038J95
         K23N00M KC2023 07 09.95222317 19 19.610-06 44 17.38         19.4 GVEN038J95
         K23N00M KC2023 07 09.95358717 19 20.542-06 44 08.95         18.9 GVEN038J95
         K23N00M KB2023 07 09.97402517 20 46.196-06 09 20.78         19.0 GXEN038Y05
         K23N00M KC2023 07 09.97655217 19 14.94 -06 39 28.4          18.8 GVEN038104
         K23N00M KC2023 07 09.98041617 19 17.43 -06 39 05.4                VEN038104
         K23N00M KB2023 07 09.98316017 20 50.469-06 08 34.70         18.7 GXEN038Y05
         K23N00M KB2023 07 09.99215617 20 54.553-06 07 49.44         18.4 GXEN038Y05
         K23N00M KC2023 07 09.99441917 19 26.80 -06 37 42.1          19.0 GVEN038104
    
    Observer details:
    104 San Marcello Pistoiese.  Observers P. Bacci, M. Maestripieri.  Measurers
        P. Bacci, L. Tesi, G. Fagioli.  0.60-m F4 Reflector + CCD.
    G96 Mt. Lemmon Survey.  Observer G. J. Leonard.  Measurers E. J. Christensen,
        D. Fay, J. B. Fazekas, D. C. Fuls, A. R. Gibbs, A. D. Grauer, H. Groeller,
        J. K. Hogan, R. A. Kowalski, S. M. Larson, G. J. Leonard, D. Rankin, R. L.
        Seaman, A. Serrano, F. C. Shelly, K. W. Wierzchos.  1.5-m reflector + 10K
        CCD.
    I52 Steward Observatory, Mt. Lemmon Station.  Observer A. Serrano.  Measurers
        E. J. Christensen, D. Fay, J. B. Fazekas, D. C. Fuls, A. R. Gibbs, A. D.
        Grauer, H. Groeller, J. K. Hogan, R. A. Kowalski, S. M. Larson, G. J.
        Leonard, D. Rankin, R. L. Seaman, A. Serrano, F. C. Shelly, K. W.
        Wierzchos.  1.0-m prime focus + CCD.
    J95 Great Shefford.  Observer P. Birtwhistle.  0.41-m f/6.3 Schmidt-Cassegrain
        + CCD.
    L01 Visnjan Observatory, Tican.  Observers K. Korlevic, L. Poropat.  Measurer
        K. Korlevic.  1.0-m f/2.9 reflector + CCD.
    Y05 SONEAR Wykrota-CEAMIG, Serra da Piedade.  Observer C. Jacques.  0.45-m
        f/2.9 reflector + CMO.
    
    Orbital elements:
    2023 NM                                                  Earth MOID = 0.0122 AU
    Epoch 2023 Feb. 25.0 TT = JDT 2460000.5                 Veres                   
    M   8.93160              (2000.0)            P               Q                  
    n   0.92932191     Peri.  220.82971     -0.83083976     -0.55649576             
    a   1.0399807      Node   285.35600     +0.51171985     -0.76096843             
    e   0.0368195      Incl.    0.25050     +0.21874208     -0.33352590             
    P   1.06           H   29.68          G   0.15           U   8                  
    Residuals in seconds of arc
    230709 G96  0.1+  0.8+    230709 L01  0.6-  0.4+    230709 J95  0.3+  0.2+
    230709 G96  0.1-  0.1-    230709 L01  0.4-  0.3+    230709 Y05  0.5+  0.9+
    230709 G96  0.4+  0.3+    230709 L01  0.7-  0.1+    230709 104  0.3+  0.4+
    230709 G96  0.4+  0.4+    230709 L01  0.2-  0.2+    230709 104  0.0   0.6+
    230709 I52  0.3+  0.6+    230709 L01  0.3-  0.1+    230709 Y05  0.4+  1.2+
    230709 I52  0.2-  0.0     230709 J95  0.1+  0.4-    230709 Y05  0.5+  0.7+
    230709 I52  0.7+  1.0+    230709 J95  0.1-  0.2+    230709 104  0.6+  0.5+
    230709 I52  0.3-  0.7+    230709 J95  0.3-  0.7-
    
    Ephemeris:
    2023 NM                  a,e,i = 1.04, 0.04, 0                   q = 1.0017
    Date    TT    R. A. (2000) Decl.     Delta      r    Elong.  Phase     V
    2023 06 10    09 59 27.3 -18 00 06   0.0047831.0144    81.6    98.1    21.6
    ...
    2023 06 25    13 33 51.9 -19 02 44   0.0059091.0190   115.5    64.2    20.9
    ...
    2023 07 03    15 24 08.1 -14 24 26   0.0055381.0203   131.7    48.1    20.2
    ...
    2023 07 09    17 02 02.7 -07 41 53   0.0049471.0208   145.8    34.1    19.6
    2023 07 10    17 20 24.6 -06 14 25   0.0048381.0208   148.1    31.7    19.5
    2023 07 11    17 39 31.2 -04 41 09   0.0047281.0208   150.3    29.6    19.4
    ...
    2023 07 17    19 54 20.1 +06 10 12   0.0041071.0201   152.4    27.5    19.0
    ...
    2023 07 25    00 02 07.0 +16 33 33   0.0036641.0173   113.4    66.4    19.9
    ...
    2023 08 09    07 24 48.0 -03 50 22   0.0045011.0102    33.4   146.5    25.8
    
    M. P. C. Staff               (C) Copyright 2023 MPC           M.P.E.C. 2023-N38
    


    Read MPEC 2023-N37 Read MPEC 2023-N39


    MPEC number:

    Enter an MPEC number in one of the following forms:

    • 1997-B01 (the full form)
    • J97B01 (the packed version of the full form)
    • B01 (the abbreviated form)